Regional Weather Roundup
Issued by NWS Kansas City/Pleasant Hill, MO

Home | Current Version | Previous Version | Graphics & Text | Print | Product List | Glossary Off
Versions: 1 2 3 4 5 6 7 8 9 10 11 12 13 14 15 16 17 18 19 20 21 22 23 24 25 26 27

000
ASUS43 KEAX 210910
RWREAX

WEATHER ROUNDUP FOR EASTERN KANSAS AND NORTHWEST MISSOURI
NATIONAL WEATHER SERVICE KANSAS CITY/PLEASANT HILL MO
400 AM CDT SAT APR 21 2018

KSZ040-057-103>105-MOZ028-029-037-043-211000-
...KANSAS CITY METROPOLITAN AREA...

CITY           SKY/WX    TMP DP  RH WIND       PRES   REMARKS
K.C. INTL      CLOUDY    50  24  36 E9        30.26S
K.C. DOWNTOWN  CLOUDY    52  25  35 E5        30.25F
LEES SUMMIT    CLOUDY    50  27  40 MISG      30.27S
OLATHE - IXD   CLOUDY    51  26  37 E10       30.24F
OLATHE - OJC   CLOUDY    50  26  39 E7        30.24F
LAWRENCE       CLOUDY    52  26  36 E6        30.25S

$$

MOZ001>008-011>017-020>025-030>033-038>040-044>046-053-054-211000-
...NORTHERN AND CENTRAL MISSOURI...

CITY           SKY/WX    TMP DP  RH WIND       PRES   REMARKS
ST. JOSEPH     CLOUDY    51  24  34 E3        30.29R
MOSBY          CLOUDY    52  23  32 E8        30.27F
WARRENSBURG    CLOUDY    48  28  46 NE8       30.27F
WHITEMAN AFB   CLOUDY    49  28  45 E7        30.24F
CLINTON        MOCLDY    46  32  57 NE5       30.27F
SEDALIA        CLOUDY    50  28  42 E3        30.31R
WARSAW         NOT AVBL
CHILLICOTHE      N/A     50  24  36 CALM      30.32F
KIRKSVILLE     CLOUDY    44  28  53 E3        30.35R

$$

MOZ041-047>049-056>058-063>065-088>090-097-211000-
...EASTERN AND SOUTHERN MISSOURI...

CITY           SKY/WX    TMP DP  RH WIND       PRES   REMARKS
ST. LOUIS INTL CLOUDY    48  27  44 E7        30.33S
SPIRIT OF STL  CLOUDY    41  36  82 CALM      30.32S
COLUMBIA       MOCLDY    47  25  42 E5        30.31R
JEFFERSON CITY CLOUDY    48  24  39 CALM      30.31R
ROLLA          CLOUDY    45  25  45 E10       30.28F
OSAGE BEACH    CLOUDY    50  27  40 E3        30.29R
SPRINGFIELD    CLOUDY    53  27  36 SE6       30.25R
BRANSON        MOCLDY    48  27  43 E6        30.23S
JOPLIN         CLOUDY    50  28  42 E8        30.22F
WEST PLAINS    CLOUDY    44  27  51 NE7       30.26S

$$

IAZ060-094-KSZ022-034>040-054-083-096-NEZ052-066-093-211000-
...KANSAS...SOUTHEAST NEBRASKA AND IOWA...

CITY           SKY/WX    TMP DP  RH WIND       PRES   REMARKS
TOPEKA         CLOUDY    52  27  38 E10       30.24F
MANHATTAN      LGT RAIN  51  31  46 NE12      30.22R
EMPORIA        CLOUDY    52  29  41 SE7       30.19R
CHANUTE        LGT RAIN  52  33  48 E9        30.19S
WICHITA        LGT RAIN  48  44  86 SE7       30.17R
OMAHA          CLOUDY    50  28  42 E7        30.30F
LINCOLN        CLOUDY    52  24  33 SE14      30.28S
FALLS CITY     CLOUDY    48  25  40 E9        30.25F
LAMONI         CLOUDY    47  25  42 NE8       30.31F
DES MOINES     CLOUDY    47  34  60 NE5       30.38R

$$





USA.gov is the U.S. government's official web portal to all federal, state and local government web resources and services.